Moab, UT

11:32 AM MDT on October 20, 2019 (GMT -0600)
Canyonlands

Weather History for KCNY - August, 2019

Change the Weather History Date:

Tuesday, August 13, 2019

  Actual Average Record
Temperature  
Mean Temperature 79 °F 78 °F  
Max Temperature 97 °F 93 °F 107 °F (1992)
Min Temperature 60 °F 63 °F 48 °F (1932)
Degree Days  
Heating Degree Days 0 0  
Month to date heating degree days 0 0  
Since 1 June heating degree days 23 17  
Since 1 July heating degree days 0 0  
Cooling Degree Days 14 13  
Month to date cooling degree days 216 185  
Year to date cooling degree days 989 978  
Since 1 June cooling degree days 974 914  
Growing Degree Days 28 (Base 50)    
Moisture  
Dew Point 26 °F    
Average Humidity 18    
Maximum Humidity 27    
Minimum Humidity 8    
Precipitation  
Precipitation 0.00 in 0.03 in 0.75 in (1934)
Month to date precipitation 0.02 0.35  
Year to date precipitation 6.17 4.89  
Sea Level Pressure  
Sea Level Pressure 29.92 in    
Wind  
Wind Speed 5 mph (WSW)    
Max Wind Speed 18 mph    
Max Gust Speed 25 mph    
Visibility 10 miles    
Events      
T = Trace of Precipitation, MM = Missing Value Source: NWS Daily Summary

Daily Weather History Graph

Daily Weather History Graph

Search for Another Location

Airport or City:

Astronomy

Aug. 13, 2019 Rise Set
Actual Time 6:30 AM MDT 8:16 PM MDT
Civil Twilight 6:02 AM MDT 8:44 PM MDT
Nautical Twilight 5:27 AM MDT 9:19 PM MDT
Astronomical Twilight 4:50 AM MDT 9:55 PM MDT
Moon 7:32 PM MDT (8/13) 4:37 AM MDT (8/13)
Length of Visible Light 14h 42m
Length of Day
13h 45m
Waxing Gibbous, 97% of the Moon is Illuminated
Aug 13
Waxing Gibbous
Aug 15
Full
Aug 23
Last Quarter
Aug 30
New
Sep 5
First Quarter

Hourly Weather History & Observations

Time (MDT) Temp. Dew Point Humidity Pressure Visibility Wind Dir Wind Speed Gust Speed Precip Events Conditions
12:53 AM 70.0 °F 21.9 °F 16% 29.89 in 10.0 mi West 3.5 mph - N/A   Clear
1:53 AM 68.0 °F 19.9 °F 16% 29.89 in 10.0 mi WSW 4.6 mph - N/A   Clear
2:53 AM 68.0 °F 19.0 °F 15% 29.89 in 10.0 mi Calm Calm - N/A   Clear
3:53 AM 69.1 °F 24.1 °F 18% 29.89 in 10.0 mi SW 4.6 mph - N/A   Clear
4:53 AM 68.0 °F 27.0 °F 21% 29.91 in 10.0 mi WNW 3.5 mph - N/A   Clear
5:53 AM 64.0 °F 26.1 °F 24% 29.93 in 10.0 mi North - - N/A   Clear
6:53 AM 60.1 °F 26.1 °F 27% 29.96 in 10.0 mi Calm Calm - N/A   Clear
7:53 AM 69.1 °F 27.0 °F 21% 29.98 in 10.0 mi Calm Calm - N/A   Clear
9:53 AM 82.9 °F 28.9 °F 14% 29.99 in 10.0 mi Variable 5.8 mph - N/A   Clear
10:53 AM 86.0 °F 28.0 °F 12% 29.99 in 10.0 mi ENE 12.7 mph - N/A   Clear
11:53 AM 90.0 °F 27.0 °F 10% 29.98 in 10.0 mi East 9.2 mph 18.4 mph N/A   Clear
12:53 PM 91.0 °F 26.1 °F 10% 29.97 in 10.0 mi North - - N/A   Clear
1:53 PM 93.0 °F 26.1 °F 9% 29.94 in 10.0 mi WSW 9.2 mph - N/A   Clear
2:53 PM 95.0 °F 28.0 °F 9% 29.92 in 10.0 mi Calm Calm - N/A   Clear
3:53 PM 97.0 °F 26.1 °F 8% 29.89 in 10.0 mi NW 15.0 mph 20.7 mph N/A   Clear
4:53 PM 97.0 °F 27.0 °F 8% 29.87 in 10.0 mi West 9.2 mph 17.3 mph N/A   Clear
5:53 PM 96.1 °F 28.0 °F 9% 29.87 in 10.0 mi West 17.3 mph 20.7 mph N/A   Clear
6:53 PM 93.0 °F 28.0 °F 10% 29.88 in 10.0 mi Variable 4.6 mph - N/A   Clear
7:53 PM 90.0 °F 27.0 °F 10% 29.86 in 10.0 mi SSE 4.6 mph - N/A   Clear
8:53 PM 86.0 °F 27.0 °F 12% 29.87 in 10.0 mi Calm Calm - N/A   Clear
9:53 PM 81.0 °F 27.0 °F 14% 29.89 in 10.0 mi WSW 3.5 mph - N/A   Clear
10:53 PM 78.1 °F 26.1 °F 15% 29.90 in 10.0 mi Calm Calm - N/A   Clear
11:53 PM 82.0 °F 27.0 °F 13% 29.90 in 10.0 mi Variable 4.6 mph - N/A   Clear